TimeMST,TemperatureF,Dew PointF,Humidity,Sea Level PressureIn,VisibilityMPH,Wind Direction,Wind SpeedMPH,Gust SpeedMPH,PrecipitationIn,Events,Conditions,WindDirDegrees,DateUTC
12:53 AM,28.0,17.1,63,30.18,10.0,Variable,3.5,-,N/A,,Clear,0,2012-11-24 07:53:00
1:53 AM,27.0,17.1,66,30.17,10.0,Variable,5.8,-,N/A,,Clear,0,2012-11-24 08:53:00
2:53 AM,32.0,17.1,54,30.13,10.0,Variable,5.8,-,N/A,,Clear,0,2012-11-24 09:53:00
3:53 AM,32.0,18.0,56,30.09,10.0,NW,10.4,-,N/A,,Clear,310,2012-11-24 10:53:00
4:53 AM,30.0,17.1,59,30.12,10.0,NW,5.8,-,N/A,,Clear,320,2012-11-24 11:53:00
5:53 AM,30.0,17.1,59,30.12,10.0,SW,5.8,-,N/A,,Clear,220,2012-11-24 12:53:00
6:53 AM,28.9,17.1,61,30.12,10.0,ESE,3.5,-,N/A,,Clear,120,2012-11-24 13:53:00
7:53 AM,32.0,17.1,54,30.09,10.0,ESE,4.6,-,N/A,,Clear,120,2012-11-24 14:53:00
8:53 AM,37.0,18.0,46,30.06,10.0,Calm,Calm,-,N/A,,Clear,0,2012-11-24 15:53:00
9:53 AM,33.1,21.0,61,30.09,10.0,NNW,3.5,-,N/A,,Clear,330,2012-11-24 16:53:00
10:53 AM,37.9,25.0,60,30.07,10.0,Variable,6.9,-,N/A,,Clear,0,2012-11-24 17:53:00
11:53 AM,45.0,21.0,39,30.01,10.0,SE,5.8,-,N/A,,Clear,130,2012-11-24 18:53:00
12:53 PM,50.0,19.0,29,29.96,10.0,ESE,3.5,-,N/A,,Clear,110,2012-11-24 19:53:00
1:53 PM,54.0,16.0,22,29.93,10.0,SE,5.8,-,N/A,,Clear,130,2012-11-24 20:53:00
2:53 PM,57.0,16.0,20,29.89,10.0,East,8.1,-,N/A,,Clear,100,2012-11-24 21:53:00
3:53 PM,54.0,18.0,24,29.91,10.0,Calm,Calm,-,N/A,,Clear,0,2012-11-24 22:53:00
4:53 PM,50.0,17.1,27,29.93,10.0,ESE,10.4,-,N/A,,Clear,120,2012-11-24 23:53:00
5:53 PM,46.0,19.0,34,29.96,10.0,NE,5.8,-,N/A,,Clear,50,2012-11-25 00:53:00
6:53 PM,43.0,19.0,38,29.99,10.0,Calm,Calm,-,N/A,,Clear,0,2012-11-25 01:53:00
7:53 PM,43.0,26.1,51,29.97,10.0,Calm,Calm,-,N/A,,Scattered Clouds,0,2012-11-25 02:53:00
8:53 PM,42.1,27.0,55,29.96,10.0,SSE,3.5,-,N/A,,Overcast,150,2012-11-25 03:53:00
9:53 PM,36.0,25.0,64,29.98,10.0,Calm,Calm,-,N/A,,Mostly Cloudy,0,2012-11-25 04:53:00
10:53 PM,36.0,25.0,64,29.96,10.0,WNW,4.6,-,N/A,,Clear,300,2012-11-25 05:53:00
11:53 PM,37.0,26.1,65,29.91,10.0,SW,3.5,-,N/A,,Clear,220,2012-11-25 06:53:00